CZ-4C DEB

Satellite information

Favourite Embed

Satellite Type and Status

DEBRISIN ORBIT

Key statistics

Satellite CZ-4C DEB at a glance.

Uptime

3671

Days in orbit

Revolutions

≈ 15.0

Per day

Orbit

SSO

Sun Synchronous Orbit

Inclination

98.3

Latest

Satellite identification and parameters

Extended collection of information and parameters for CZ-4C DEB.

Object identification

Identified? True

Debris? True

Object name: CZ-4C DEB

International designator: 2015-069E

Object number (NORAD): 42672

Object ID (CCSDS): 42672

Country: PEOPLES REPUBLIC OF CHINA (PRC)

Current information (Y/N): Y

RCS size: SMALL

Orbital parameters

Period: 96.154 minutes

Inclination: 98.2763 deg

SMA: 6952.482 km

Apoapsis: 631.054 km

Periapsis: 517.639 km

RAAN: 320.7873 deg

Eccentricy: 0.00815648

Argument of periapsis: 206.2851 deg

Mean anomaly: 153.4221 deg

Mean motion: 14.9759019 rev/day

Mean motion (dot): 0.00021181 rev/day2

B* drag term: 0.0016947924 1/REarth

Two-line elements (TLE)

Creation date: Dec. 13, 2025, 5:47 p.m.

Reference frame: TEME

Reference center: EARTH

Epoch: Dec. 13, 2025, 3:56 a.m. UTC

TLE line 0: 0 CZ-4C DEB

TLE line 1: 1 42672U 15069E 25347.16412991 .00021181 00000-0 16948-2 0 9999

TLE line 2: 2 42672 98.2763 320.7873 0081565 206.2851 153.4221 14.97590190531201

Live tracking on map

Real-time ground track for satellite CZ-4C DEB.

In-orbit conjunctions

A list of the most updated potential collisions computed for object CZ-4C DEB.

Target Orbit TCA Probability of collision Miss distance Type
COSMOS 2242 LEO 2025-08-29 22:10:38 0.0002231762 529.0 (m) PAYLOAD
SWAS LEO 2024-06-25 23:14:46 0.0005631964 104.0 (m) PAYLOAD

Associated space launch

CZ-4C DEB was lifted into orbit during the mission ‘Long March 4C | Yaogan-29’, on board a Long March 4C space rocket.

The launch took place on Nov. 26, 2015, 9:24 p.m. from Launch Complex 9.

For more information about the launch, click the button.

Launch to space Long March 4C | Yaogan-29
Long March 4C | Yaogan-29

Agency: N/A

Status: Launch Successful

Launch date: Nov. 26, 2015, 9:24 p.m. UTC

Rocket: Long March 4C

Launch pad: Launch Complex 9

Location: Taiyuan Satellite Launch Center, People's Republic of China

...

Latest news about this satellite

There are no fresh news available about this satellite. Check back as we update our databases every day.


Newsletter sign-up

Weekly statistics, charts and insights to help you stay on top of the space industry.